Regional Weather Roundup
Issued by NWS

Home | Current Version | Previous Version | Text Only | Print | Product List | Glossary Off
Versions: 1 2 3 4 5 6 7 8 9 10 11 12 13 14 15 16 17 18 19 20 21 22 23 24 25 26 27 28 29 30 31 32 33 34 35 36 37 38 39 40 41 42 43 44 45 46 47 48 49 50

000
ASUS43 KLMK 300202
RWRKY
KENTUCKY REGIONAL WEATHER ROUNDUP
NATIONAL WEATHER SERVICE LOUISVILLE KY
900 PM EST THU JAN 29 2015

NOTE "FAIR" INDICATES FEW OR NO CLOUDS BELOW 12,000 FEET
WITH NO SIGNIFICANT WEATHER AND/OR OBSTRUCTIONS TO VISIBILITY.

KYZ001>023-026-027-061>063-070>075-300300-
WESTERN AND SOUTH CENTRAL KENTUCKY

CITY           SKY/WX    TMP DP  RH WIND       PRES   REMARKS
PADUCAH        CLOUDY    42  31  64 NW7       30.33R
HENDERSON      CLOUDY    37  30  75 NW14      30.30R WCI  29
OWENSBORO      LGT RAIN  37  34  89 NW13      30.29R FOG     WCI  29
HOPKINSVILLE   CLOUDY    40  33  76 NW7       30.30R
BOWLING GREEN  CLOUDY    40  31  70 NW12G18   30.27R WCI  33
GLASGOW        NOT AVBL
$$

KYZ024-025-028>034-038-045-046-053-300300-
NORTH CENTRAL KENTUCKY

CITY           SKY/WX    TMP DP  RH WIND       PRES   REMARKS
LOUISVILLE/SDF CLOUDY    37  29  72 NW13      30.22R WCI  29
LOUISVILLE/LOU CLOUDY    37  29  72 W16       30.22R WCI  28
FORT KNOX      CLOUDY    36  30  80 W8        30.22R WCI  29
$$

KYZ035>037-039>044-047>052-055>060-089>105-300300-
NORTHEAST KENTUCKY

CITY           SKY/WX    TMP DP  RH WIND       PRES   REMARKS
LEXINGTON      LGT RAIN  35  31  85 W16G24    30.17R WCI  25
COVINGTON      CLOUDY    34  30  85 NW15G22   30.14R FOG     WCI  24
FRANKFORT      CLOUDY    35  30  82 W10G18    30.17R WCI  27
$$

KYZ054-064>069-076>088-106>120-300300-
SOUTHEAST KENTUCKY

CITY           SKY/WX    TMP DP  RH WIND       PRES   REMARKS
JACKSON        CLOUDY    38  30  73 NW9G18    30.11R WCI  31
LONDON         CLOUDY    39  30  70 NW14G22   30.15R WCI  31
SOMERSET       NOT AVBL
MIDDLESBORO    NOT AVBL
MONTICELLO     CLOUDY    39  33  79 NW14      30.23R WCI  31
$$



USA.gov is the U.S. government's official web portal to all federal, state and local government web resources and services.